Wetterdaten: Sonntag, 11.08.2013
Datum Zeit Temperatur Luftfeuchte Luftdruck Regen Wind Richtung Richtung Taupunkt Windchill Windben
11.08.2013 00:00 13,5 C 78 % 1023,2 hPa 0,0 l/m 0,6 km/h (0 Bft) NO 45 9,7 C 13,4 C 0,0 km/h (0 Bft)
11.08.2013 00:05 13,2 C 78 % 1023,2 hPa 0,0 l/m 0,5 km/h (0 Bft) O-NO 67 9,4 C 13,2 C 1,9 km/h (1 Bft)
11.08.2013 00:10 12,9 C 79 % 1023,2 hPa 0,0 l/m 0,3 km/h (0 Bft) S-SW 202 9,3 C 13,1 C 0,0 km/h (0 Bft)
11.08.2013 00:15 12,7 C 79 % 1023,2 hPa 0,0 l/m 0,3 km/h (0 Bft) S-SO 157 9,2 C 12,9 C 0,0 km/h (0 Bft)
11.08.2013 00:20 12,5 C 79 % 1023,1 hPa 0,0 l/m 0,2 km/h (0 Bft) O-NO 67 9,0 C 12,6 C 1,6 km/h (1 Bft)
11.08.2013 00:25 12,4 C 79 % 1023,1 hPa 0,0 l/m 0,0 km/h (0 Bft) O-SO 112 8,9 C 12,3 C 0,0 km/h (0 Bft)
11.08.2013 00:30 12,1 C 79 % 1023,1 hPa 0,0 l/m 0,0 km/h (0 Bft) O 90 8,6 C 12,1 C 0,0 km/h (0 Bft)
11.08.2013 00:35 11,9 C 80 % 1023,1 hPa 0,0 l/m 0,0 km/h (0 Bft) O 90 8,6 C 11,8 C 0,0 km/h (0 Bft)
11.08.2013 00:40 11,8 C 80 % 1023,1 hPa 0,0 l/m 0,0 km/h (0 Bft) O-SO 112 8,5 C 11,7 C 0,0 km/h (0 Bft)
11.08.2013 00:45 11,7 C 81 % 1023,1 hPa 0,0 l/m 0,2 km/h (0 Bft) W-SW 247 8,5 C 11,5 C 5,5 km/h (1 Bft)
11.08.2013 00:50 11,7 C 83 % 1023,1 hPa 0,0 l/m 1,9 km/h (1 Bft) S 180 8,9 C 11,5 C 5,5 km/h (1 Bft)
11.08.2013 00:55 12,6 C 83 % 1023,1 hPa 0,0 l/m 4,2 km/h (1 Bft) NO 45 9,8 C 11,8 C 9,7 km/h (2 Bft)
11.08.2013 01:00 12,9 C 82 % 1023,2 hPa 0,0 l/m 4,3 km/h (1 Bft) O 90 9,9 C 12,2 C 6,1 km/h (2 Bft)
11.08.2013 01:05 12,8 C 81 % 1023,2 hPa 0,0 l/m 4,3 km/h (1 Bft) O 90 9,6 C 12,4 C 5,1 km/h (1 Bft)
11.08.2013 01:10 12,6 C 81 % 1023,2 hPa 0,0 l/m 4,2 km/h (1 Bft) O-NO 67 9,4 C 12,4 C 4,3 km/h (1 Bft)
11.08.2013 01:15 12,5 C 82 % 1023,2 hPa 0,0 l/m 3,2 km/h (1 Bft) NO 45 9,5 C 12,4 C 3,1 km/h (1 Bft)
11.08.2013 01:20 12,5 C 82 % 1023,4 hPa 0,0 l/m 2,4 km/h (1 Bft) NO 45 9,5 C 12,3 C 2,7 km/h (1 Bft)
11.08.2013 01:25 12,9 C 82 % 1023,4 hPa 0,0 l/m 2,6 km/h (1 Bft) O-SO 112 9,9 C 12,3 C 4,8 km/h (1 Bft)
11.08.2013 01:30 12,9 C 82 % 1023,4 hPa 0,0 l/m 3,5 km/h (1 Bft) O-NO 67 9,9 C 12,4 C 5,3 km/h (1 Bft)
11.08.2013 01:35 13,3 C 80 % 1023,4 hPa 0,0 l/m 5,1 km/h (1 Bft) O 90 9,9 C 12,8 C 6,1 km/h (2 Bft)
11.08.2013 01:40 13,4 C 80 % 1023,3 hPa 0,0 l/m 5,1 km/h (1 Bft) O-SO 112 10,0 C 12,9 C 5,1 km/h (1 Bft)
11.08.2013 01:45 13,6 C 79 % 1023,3 hPa 0,0 l/m 3,9 km/h (1 Bft) O 90 10,0 C 13,1 C 3,9 km/h (1 Bft)
11.08.2013 01:50 13,7 C 79 % 1023,3 hPa 0,0 l/m 3,4 km/h (1 Bft) O 90 10,1 C 13,1 C 4,3 km/h (1 Bft)
11.08.2013 01:55 13,5 C 79 % 1023,3 hPa 0,0 l/m 3,2 km/h (1 Bft) S 180 9,9 C 13,2 C 0,0 km/h (0 Bft)
11.08.2013 02:00 13,3 C 79 % 1023,2 hPa 0,0 l/m 2,3 km/h (1 Bft) NO 45 9,7 C 13,1 C 0,0 km/h (0 Bft)
11.08.2013 02:05 13,5 C 79 % 1023,2 hPa 0,0 l/m 2,3 km/h (1 Bft) O 90 9,9 C 13,1 C 4,5 km/h (1 Bft)
11.08.2013 02:10 13,3 C 79 % 1023,2 hPa 0,0 l/m 3,9 km/h (1 Bft) O-SO 112 9,7 C 13,1 C 3,5 km/h (1 Bft)
11.08.2013 02:15 13,2 C 80 % 1023,2 hPa 0,0 l/m 3,4 km/h (1 Bft) O-SO 112 9,8 C 13,1 C 3,5 km/h (1 Bft)
11.08.2013 02:20 13,4 C 80 % 1023,2 hPa 0,0 l/m 2,7 km/h (1 Bft) NO 45 10,0 C 13,1 C 3,5 km/h (1 Bft)
11.08.2013 02:25 13,6 C 80 % 1023,2 hPa 0,0 l/m 3,1 km/h (1 Bft) O 90 10,2 C 13,3 C 4,3 km/h (1 Bft)
11.08.2013 02:30 13,8 C 80 % 1023,2 hPa 0,0 l/m 2,9 km/h (1 Bft) O-NO 67 10,4 C 13,5 C 2,1 km/h (1 Bft)
11.08.2013 02:35 13,5 C 80 % 1023,2 hPa 0,0 l/m 1,4 km/h (1 Bft) S 180 10,1 C 13,5 C 0,0 km/h (0 Bft)
11.08.2013 02:40 13,3 C 80 % 1023,3 hPa 0,0 l/m 0,5 km/h (0 Bft) O 90 9,9 C 13,3 C 0,0 km/h (0 Bft)
11.08.2013 02:45 13,7 C 81 % 1023,3 hPa 0,0 l/m 1,6 km/h (1 Bft) O 90 10,5 C 13,4 C 2,7 km/h (1 Bft)
11.08.2013 02:50 13,8 C 81 % 1023,3 hPa 0,0 l/m 2,3 km/h (1 Bft) O 90 10,6 C 13,6 C 2,9 km/h (1 Bft)
11.08.2013 02:55 13,9 C 81 % 1023,3 hPa 0,0 l/m 2,7 km/h (1 Bft) S 180 10,7 C 13,7 C 0,0 km/h (0 Bft)
11.08.2013 03:00 13,7 C 81 % 1023,1 hPa 0,0 l/m 2,1 km/h (1 Bft) S-SW 202 10,5 C 13,7 C 0,0 km/h (0 Bft)
11.08.2013 03:05 13,4 C 80 % 1023,1 hPa 0,0 l/m 0,3 km/h (0 Bft) O-SO 112 10,0 C 13,4 C 0,0 km/h (0 Bft)
11.08.2013 03:10 13,4 C 81 % 1023,1 hPa 0,0 l/m 0,0 km/h (0 Bft) W-SW 247 10,2 C 13,3 C 0,0 km/h (0 Bft)
11.08.2013 03:15 13,2 C 81 % 1023,1 hPa 0,0 l/m 0,0 km/h (0 Bft) O 90 10,0 C 13,2 C 0,0 km/h (0 Bft)
11.08.2013 03:20 13,2 C 82 % 1022,9 hPa 0,0 l/m 0,0 km/h (0 Bft) O 90 10,2 C 13,2 C 0,0 km/h (0 Bft)
11.08.2013 03:25 13,3 C 82 % 1022,9 hPa 0,0 l/m 0,0 km/h (0 Bft) O 90 10,3 C 13,2 C 0,0 km/h (0 Bft)
11.08.2013 03:30 13,4 C 82 % 1022,9 hPa 0,0 l/m 0,0 km/h (0 Bft) O 90 10,4 C 13,3 C 0,0 km/h (0 Bft)
11.08.2013 03:35 13,6 C 82 % 1022,9 hPa 0,0 l/m 0,3 km/h (0 Bft) O 90 10,6 C 13,4 C 0,0 km/h (0 Bft)
11.08.2013 03:40 13,6 C 82 % 1022,9 hPa 0,0 l/m 0,8 km/h (0 Bft) O-SO 112 10,6 C 13,4 C 1,9 km/h (1 Bft)
11.08.2013 03:45 13,6 C 82 % 1022,9 hPa 0,0 l/m 1,6 km/h (1 Bft) O-NO 67 10,6 C 13,6 C 2,6 km/h (1 Bft)
11.08.2013 03:50 13,6 C 82 % 1022,9 hPa 0,0 l/m 1,6 km/h (1 Bft) O 90 10,6 C 13,6 C 2,3 km/h (1 Bft)
11.08.2013 03:55 13,6 C 82 % 1022,9 hPa 0,0 l/m 0,8 km/h (0 Bft) O-SO 112 10,6 C 13,6 C 0,0 km/h (0 Bft)
11.08.2013 04:00 13,6 C 82 % 1022,9 hPa 0,0 l/m 0,3 km/h (0 Bft) NO 45 10,6 C 13,6 C 0,0 km/h (0 Bft)
11.08.2013 04:05 13,6 C 82 % 1022,9 hPa 0,0 l/m 0,0 km/h (0 Bft) S-SW 202 10,6 C 13,6 C 0,0 km/h (0 Bft)
11.08.2013 04:10 13,6 C 82 % 1022,9 hPa 0,0 l/m 0,0 km/h (0 Bft) O-NO 67 10,6 C 13,6 C 1,8 km/h (1 Bft)
11.08.2013 04:15 13,3 C 85 % 1022,9 hPa 0,0 l/m 0,6 km/h (0 Bft) O 90 10,8 C 13,3 C 2,4 km/h (1 Bft)
11.08.2013 04:20 13,1 C 87 % 1022,9 hPa 0,0 l/m 1,4 km/h (1 Bft) NO 45 11,0 C 13,1 C 3,5 km/h (1 Bft)
11.08.2013 04:25 13,0 C 89 % 1022,9 hPa 0,0 l/m 2,1 km/h (1 Bft) NO 45 11,2 C 12,9 C 3,1 km/h (1 Bft)
11.08.2013 04:30 12,9 C 91 % 1022,9 hPa 0,0 l/m 1,6 km/h (1 Bft) O 90 11,5 C 12,9 C 0,0 km/h (0 Bft)
11.08.2013 04:35 12,8 C 91 % 1022,9 hPa 0,0 l/m 0,5 km/h (0 Bft) O-SO 112 11,4 C 12,8 C 0,0 km/h (0 Bft)
11.08.2013 04:40 12,7 C 92 % 1022,6 hPa 0,0 l/m 0,6 km/h (0 Bft) O 90 11,4 C 12,7 C 2,6 km/h (1 Bft)
11.08.2013 04:45 12,7 C 92 % 1022,6 hPa 0,0 l/m 1,6 km/h (1 Bft) O-NO 67 11,4 C 12,7 C 1,6 km/h (1 Bft)
11.08.2013 04:50 12,8 C 93 % 1022,6 hPa 0,0 l/m 1,3 km/h (1 Bft) O-NO 67 11,7 C 12,7 C 0,0 km/h (0 Bft)
11.08.2013 04:55 12,7 C 93 % 1022,6 hPa 0,0 l/m 1,4 km/h (1 Bft) O-NO 67 11,6 C 12,7 C 3,1 km/h (1 Bft)
11.08.2013 05:00 12,7 C 93 % 1022,7 hPa 0,0 l/m 1,8 km/h (1 Bft) NO 45 11,6 C 12,7 C 1,6 km/h (1 Bft)
11.08.2013 05:05 12,7 C 94 % 1022,7 hPa 0,0 l/m 1,9 km/h (1 Bft) NO 45 11,8 C 12,7 C 2,6 km/h (1 Bft)
11.08.2013 05:10 12,7 C 94 % 1022,7 hPa 0,0 l/m 1,9 km/h (1 Bft) NO 45 11,8 C 12,7 C 0,0 km/h (0 Bft)
11.08.2013 05:15 12,7 C 94 % 1022,7 hPa 0,0 l/m 0,8 km/h (0 Bft) NO 45 11,8 C 12,7 C 1,9 km/h (1 Bft)
11.08.2013 05:20 12,7 C 94 % 1022,7 hPa 0,7 l/m 0,3 km/h (0 Bft) O-NO 67 11,8 C 12,6 C 0,0 km/h (0 Bft)
11.08.2013 05:25 12,7 C 94 % 1022,7 hPa 0,0 l/m 0,3 km/h (0 Bft) NO 45 11,8 C 12,6 C 0,0 km/h (0 Bft)
11.08.2013 05:30 12,7 C 94 % 1022,7 hPa 0,0 l/m 0,0 km/h (0 Bft) NO 45 11,8 C 12,6 C 1,6 km/h (1 Bft)
11.08.2013 05:35 12,6 C 94 % 1022,7 hPa 0,0 l/m 0,0 km/h (0 Bft) NO 45 11,7 C 12,6 C 0,0 km/h (0 Bft)
11.08.2013 05:40 12,6 C 94 % 1022,6 hPa 0,0 l/m 0,0 km/h (0 Bft) O-SO 112 11,7 C 12,5 C 0,0 km/h (0 Bft)
11.08.2013 05:45 12,4 C 94 % 1022,6 hPa 0,0 l/m 0,0 km/h (0 Bft) SO 135 11,5 C 12,4 C 0,0 km/h (0 Bft)
11.08.2013 05:50 12,3 C 94 % 1022,6 hPa 0,0 l/m 0,0 km/h (0 Bft) O-SO 112 11,4 C 12,3 C 0,0 km/h (0 Bft)
11.08.2013 05:55 12,3 C 94 % 1022,6 hPa 0,0 l/m 0,0 km/h (0 Bft) S 180 11,4 C 12,2 C 0,0 km/h (0 Bft)
11.08.2013 06:00 12,3 C 94 % 1022,6 hPa 0,0 l/m 0,0 km/h (0 Bft) NO 45 11,4 C 12,2 C 0,0 km/h (0 Bft)
11.08.2013 06:05 12,3 C 94 % 1022,6 hPa 0,0 l/m 0,2 km/h (0 Bft) NO 45 11,4 C 12,2 C 0,0 km/h (0 Bft)
11.08.2013 06:10 12,2 C 94 % 1022,6 hPa 0,0 l/m 0,2 km/h (0 Bft) NW 315 11,3 C 12,1 C 0,0 km/h (0 Bft)
11.08.2013 06:15 12,1 C 94 % 1022,6 hPa 0,0 l/m 0,0 km/h (0 Bft) W-NW 292 11,2 C 12,1 C 0,0 km/h (0 Bft)
11.08.2013 06:20 11,9 C 95 % 1022,7 hPa 0,0 l/m 0,0 km/h (0 Bft) S-SW 202 11,1 C 11,9 C 0,0 km/h (0 Bft)
11.08.2013 06:25 12,0 C 94 % 1022,7 hPa 0,0 l/m 0,0 km/h (0 Bft) S-SW 202 11,1 C 11,9 C 0,0 km/h (0 Bft)
11.08.2013 06:30 12,1 C 94 % 1022,7 hPa 0,0 l/m 0,0 km/h (0 Bft) S-SW 202 11,2 C 11,9 C 0,0 km/h (0 Bft)
11.08.2013 06:35 12,2 C 94 % 1022,7 hPa 0,0 l/m 0,0 km/h (0 Bft) S-SW 202 11,3 C 12,0 C 0,0 km/h (0 Bft)
11.08.2013 06:40 12,3 C 95 % 1022,7 hPa 0,0 l/m 0,0 km/h (0 Bft) S 180 11,5 C 12,1 C 0,0 km/h (0 Bft)
11.08.2013 06:45 12,4 C 95 % 1022,7 hPa 0,0 l/m 0,0 km/h (0 Bft) NO 45 11,6 C 12,2 C 0,0 km/h (0 Bft)
11.08.2013 06:50 12,5 C 95 % 1022,7 hPa 0,0 l/m 0,0 km/h (0 Bft) O 90 11,7 C 12,4 C 0,0 km/h (0 Bft)
11.08.2013 06:55 12,5 C 95 % 1022,7 hPa 0,0 l/m 0,0 km/h (0 Bft) W 270 11,7 C 12,4 C 0,0 km/h (0 Bft)
11.08.2013 07:00 12,4 C 95 % 1022,7 hPa 0,0 l/m 0,2 km/h (0 Bft) S 180 11,6 C 12,4 C 0,0 km/h (0 Bft)
11.08.2013 07:05 12,3 C 95 % 1022,7 hPa 0,0 l/m 0,3 km/h (0 Bft) O 90 11,5 C 12,3 C 0,0 km/h (0 Bft)
11.08.2013 07:10 12,5 C 95 % 1022,7 hPa 0,0 l/m 0,2 km/h (0 Bft) S-SW 202 11,7 C 12,4 C 0,0 km/h (0 Bft)
11.08.2013 07:15 12,7 C 95 % 1022,7 hPa 0,0 l/m 0,0 km/h (0 Bft) S-SW 202 11,9 C 12,6 C 0,0 km/h (0 Bft)
11.08.2013 07:20 12,8 C 95 % 1022,9 hPa 0,0 l/m 0,0 km/h (0 Bft) S-SW 202 12,0 C 12,8 C 0,0 km/h (0 Bft)
11.08.2013 07:25 12,9 C 95 % 1022,9 hPa 0,0 l/m 0,0 km/h (0 Bft) NO 45 12,1 C 12,9 C 0,0 km/h (0 Bft)
11.08.2013 07:30 13,0 C 94 % 1022,9 hPa 0,0 l/m 0,0 km/h (0 Bft) NO 45 12,1 C 13,8 C 0,0 km/h (0 Bft)
11.08.2013 07:35 13,8 C 94 % 1022,9 hPa 0,0 l/m 0,0 km/h (0 Bft) NO 45 12,9 C 15,6 C 0,0 km/h (0 Bft)
11.08.2013 07:40 15,5 C 94 % 1022,6 hPa 0,0 l/m 0,0 km/h (0 Bft) O 90 14,5 C 16,6 C 0,0 km/h (0 Bft)
11.08.2013 07:45 16,9 C 92 % 1022,6 hPa 0,0 l/m 0,0 km/h (0 Bft) S 180 15,6 C 17,4 C 1,6 km/h (1 Bft)
11.08.2013 07:50 17,7 C 91 % 1022,6 hPa 0,0 l/m 0,0 km/h (0 Bft) S 180 16,2 C 17,9 C 0,0 km/h (0 Bft)
11.08.2013 07:55 18,2 C 88 % 1022,6 hPa 0,0 l/m 0,0 km/h (0 Bft) S-SO 157 16,2 C 18,8 C 0,0 km/h (0 Bft)
11.08.2013 08:00 18,8 C 87 % 1022,9 hPa 0,0 l/m 0,0 km/h (0 Bft) W 270 16,6 C 19,3 C 0,0 km/h (0 Bft)
11.08.2013 08:05 18,4 C 79 % 1022,9 hPa 0,0 l/m 0,2 km/h (0 Bft) O 90 14,7 C 19,8 C 0,0 km/h (0 Bft)
11.08.2013 08:10 18,4 C 81 % 1022,9 hPa 0,0 l/m 0,2 km/h (0 Bft) W-NW 292 15,1 C 19,9 C 0,0 km/h (0 Bft)
11.08.2013 08:15 17,2 C 82 % 1022,9 hPa 0,0 l/m 0,8 km/h (0 Bft) W-SW 247 14,1 C 19,6 C 2,3 km/h (1 Bft)
11.08.2013 08:20 16,7 C 85 % 1023,1 hPa 0,0 l/m 1,1 km/h (1 Bft) S 180 14,2 C 18,6 C 1,9 km/h (1 Bft)
11.08.2013 08:25 16,9 C 85 % 1023,1 hPa 0,0 l/m 1,0 km/h (0 Bft) W-SW 247 14,4 C 18,0 C 2,1 km/h (1 Bft)
11.08.2013 08:30 18,6 C 85 % 1023,1 hPa 0,0 l/m 1,0 km/h (0 Bft) S 180 16,0 C 17,8 C 1,8 km/h (1 Bft)
11.08.2013 08:35 19,1 C 78 % 1023,1 hPa 0,0 l/m 0,5 km/h (0 Bft) NO 45 15,2 C 19,7 C 0,0 km/h (0 Bft)
11.08.2013 08:40 19,8 C 76 % 1023,1 hPa 0,0 l/m 0,2 km/h (0 Bft) N 360 15,4 C 20,5 C 0,0 km/h (0 Bft)
11.08.2013 08:45 21,4 C 76 % 1023,1 hPa 0,0 l/m 0,2 km/h (0 Bft) SO 135 17,0 C 21,8 C 2,6 km/h (1 Bft)
11.08.2013 08:50 21,6 C 75 % 1023,1 hPa 0,0 l/m 0,6 km/h (0 Bft) S-SO 157 17,0 C 22,5 C 2,6 km/h (1 Bft)
11.08.2013 08:55 21,4 C 75 % 1023,1 hPa 0,0 l/m 1,6 km/h (1 Bft) S 180 16,8 C 22,5 C 0,0 km/h (0 Bft)
11.08.2013 09:00 21,7 C 72 % 1023,2 hPa 0,0 l/m 1,1 km/h (1 Bft) S-SO 157 16,4 C 23,0 C 0,0 km/h (0 Bft)
11.08.2013 09:05 21,6 C 65 % 1023,2 hPa 0,0 l/m 0,0 km/h (0 Bft) O-SO 112 14,7 C 24,5 C 0,0 km/h (0 Bft)
11.08.2013 09:10 22,0 C 75 % 1023,2 hPa 0,0 l/m 0,0 km/h (0 Bft) SO 135 17,4 C 24,4 C 0,0 km/h (0 Bft)
11.08.2013 09:15 22,4 C 75 % 1023,2 hPa 0,0 l/m 0,3 km/h (0 Bft) S-SW 202 17,7 C 24,2 C 2,1 km/h (1 Bft)
11.08.2013 09:20 20,7 C 77 % 1023,2 hPa 0,0 l/m 0,3 km/h (0 Bft) S 180 16,5 C 24,1 C 0,0 km/h (0 Bft)
11.08.2013 09:25 23,8 C 74 % 1023,2 hPa 0,0 l/m 0,8 km/h (0 Bft) W-NW 292 18,9 C 23,8 C 3,1 km/h (1 Bft)
11.08.2013 09:30 21,5 C 71 % 1023,2 hPa 0,0 l/m 1,9 km/h (1 Bft) SW 225 16,0 C 23,5 C 2,9 km/h (1 Bft)
11.08.2013 09:35 20,8 C 76 % 1023,2 hPa 0,0 l/m 2,6 km/h (1 Bft) SW 225 16,4 C 21,6 C 3,2 km/h (1 Bft)
11.08.2013 09:40 22,3 C 73 % 1023,2 hPa 0,0 l/m 2,1 km/h (1 Bft) W-SW 247 17,2 C 21,8 C 1,9 km/h (1 Bft)
11.08.2013 09:45 23,2 C 68 % 1023,2 hPa 0,0 l/m 2,1 km/h (1 Bft) W-SW 247 17,0 C 22,9 C 3,1 km/h (1 Bft)
11.08.2013 09:50 23,4 C 60 % 1023,2 hPa 0,0 l/m 2,6 km/h (1 Bft) W-NW 292 15,2 C 23,4 C 4,2 km/h (1 Bft)
11.08.2013 09:55 19,3 C 68 % 1023,2 hPa 0,0 l/m 2,7 km/h (1 Bft) W 270 13,2 C 22,1 C 2,9 km/h (1 Bft)
11.08.2013 10:00 21,4 C 66 % 1023,4 hPa 0,0 l/m 2,6 km/h (1 Bft) NO 45 14,8 C 21,6 C 2,7 km/h (1 Bft)
11.08.2013 10:05 21,8 C 64 % 1023,4 hPa 0,0 l/m 2,9 km/h (1 Bft) SW 225 14,7 C 22,1 C 0,0 km/h (0 Bft)
11.08.2013 10:10 21,0 C 65 % 1023,4 hPa 0,0 l/m 2,1 km/h (1 Bft) S 180 14,2 C 22,8 C 4,0 km/h (1 Bft)
11.08.2013 10:15 22,2 C 61 % 1023,4 hPa 0,0 l/m 2,3 km/h (1 Bft) O-NO 67 14,3 C 22,6 C 3,7 km/h (1 Bft)
11.08.2013 10:20 21,7 C 59 % 1023,9 hPa 0,0 l/m 2,7 km/h (1 Bft) W-SW 247 13,3 C 23,2 C 2,6 km/h (1 Bft)
11.08.2013 10:25 21,4 C 56 % 1023,9 hPa 0,0 l/m 4,2 km/h (1 Bft) SW 225 12,3 C 22,7 C 11,6 km/h (2 Bft)
11.08.2013 10:30 20,0 C 59 % 1023,9 hPa 0,0 l/m 4,8 km/h (1 Bft) S 180 11,7 C 21,8 C 5,8 km/h (2 Bft)
11.08.2013 10:35 21,5 C 54 % 1023,9 hPa 0,0 l/m 4,8 km/h (1 Bft) S-SW 202 11,8 C 22,1 C 5,8 km/h (2 Bft)
11.08.2013 10:40 21,6 C 57 % 1023,8 hPa 0,0 l/m 3,9 km/h (1 Bft) S-SW 202 12,7 C 21,8 C 1,8 km/h (1 Bft)
11.08.2013 10:45 22,5 C 52 % 1023,8 hPa 0,0 l/m 4,3 km/h (1 Bft) O-SO 112 12,1 C 23,0 C 3,4 km/h (1 Bft)
11.08.2013 10:50 20,4 C 57 % 1023,8 hPa 0,0 l/m 4,8 km/h (1 Bft) W-SW 247 11,6 C 22,5 C 4,8 km/h (1 Bft)
11.08.2013 10:55 21,2 C 57 % 1023,8 hPa 0,0 l/m 4,0 km/h (1 Bft) S-SW 202 12,3 C 22,0 C 6,3 km/h (2 Bft)
11.08.2013 11:00 21,3 C 53 % 1023,8 hPa 0,0 l/m 4,8 km/h (1 Bft) S 180 11,3 C 22,1 C 8,9 km/h (2 Bft)
11.08.2013 11:05 22,0 C 52 % 1023,8 hPa 0,0 l/m 6,6 km/h (2 Bft) S 180 11,7 C 22,2 C 14,0 km/h (3 Bft)
11.08.2013 11:10 22,5 C 52 % 1023,8 hPa 0,0 l/m 6,4 km/h (2 Bft) W-SW 247 12,1 C 22,5 C 6,6 km/h (2 Bft)
11.08.2013 11:15 22,6 C 52 % 1023,8 hPa 0,0 l/m 6,8 km/h (2 Bft) S 180 12,2 C 22,7 C 4,3 km/h (1 Bft)
11.08.2013 11:20 22,7 C 52 % 1023,8 hPa 0,0 l/m 5,3 km/h (1 Bft) O-NO 67 12,3 C 22,8 C 1,9 km/h (1 Bft)
11.08.2013 11:25 22,6 C 53 % 1023,8 hPa 0,0 l/m 3,4 km/h (1 Bft) SW 225 12,5 C 23,3 C 5,8 km/h (2 Bft)
11.08.2013 11:30 24,2 C 50 % 1023,8 hPa 0,0 l/m 3,1 km/h (1 Bft) S-SO 157 13,1 C 23,1 C 4,3 km/h (1 Bft)
11.08.2013 11:35 25,4 C 47 % 1023,8 hPa 0,0 l/m 3,9 km/h (1 Bft) S 180 13,3 C 23,5 C 10,0 km/h (2 Bft)
11.08.2013 11:40 25,3 C 45 % 1023,9 hPa 0,0 l/m 4,7 km/h (1 Bft) S 180 12,5 C 23,1 C 3,2 km/h (1 Bft)
11.08.2013 11:45 25,1 C 44 % 1023,9 hPa 0,0 l/m 3,9 km/h (1 Bft) S-SW 202 12,0 C 23,3 C 7,4 km/h (2 Bft)
11.08.2013 11:50 24,6 C 45 % 1023,9 hPa 0,0 l/m 2,6 km/h (1 Bft) N-NW 337 11,9 C 23,4 C 3,7 km/h (1 Bft)
11.08.2013 11:55 25,5 C 46 % 1023,9 hPa 0,0 l/m 4,2 km/h (1 Bft) S 180 13,0 C 24,1 C 6,9 km/h (2 Bft)
11.08.2013 12:00 25,4 C 45 % 1024,1 hPa 0,0 l/m 4,8 km/h (1 Bft) W-SW 247 12,6 C 24,5 C 6,1 km/h (2 Bft)
11.08.2013 12:05 25,6 C 43 % 1024,1 hPa 0,0 l/m 5,0 km/h (1 Bft) W-NW 292 12,1 C 25,2 C 7,6 km/h (2 Bft)
11.08.2013 12:10 24,2 C 45 % 1024,1 hPa 0,0 l/m 4,3 km/h (1 Bft) W-SW 247 11,5 C 25,3 C 6,4 km/h (2 Bft)
11.08.2013 12:15 22,6 C 48 % 1024,1 hPa 0,0 l/m 5,0 km/h (1 Bft) S-SW 202 11,0 C 23,7 C 5,1 km/h (1 Bft)
11.08.2013 12:20 22,1 C 49 % 1023,9 hPa 0,0 l/m 5,1 km/h (1 Bft) SW 225 10,9 C 22,6 C 2,4 km/h (1 Bft)
11.08.2013 12:25 22,7 C 48 % 1023,9 hPa 0,0 l/m 4,8 km/h (1 Bft) S 180 11,1 C 23,3 C 15,4 km/h (3 Bft)
11.08.2013 12:30 22,0 C 49 % 1023,9 hPa 0,0 l/m 5,5 km/h (1 Bft) SW 225 10,8 C 23,1 C 7,4 km/h (2 Bft)
11.08.2013 12:35 22,0 C 52 % 1023,9 hPa 0,0 l/m 5,6 km/h (1 Bft) S 180 11,7 C 23,2 C 3,4 km/h (1 Bft)
11.08.2013 12:40 23,5 C 48 % 1023,9 hPa 0,0 l/m 5,1 km/h (1 Bft) W-SW 247 11,8 C 23,3 C 8,9 km/h (2 Bft)
11.08.2013 12:45 23,9 C 49 % 1023,9 hPa 0,0 l/m 5,5 km/h (1 Bft) S 180 12,5 C 24,0 C 5,0 km/h (1 Bft)
11.08.2013 12:50 24,0 C 44 % 1023,9 hPa 0,0 l/m 6,6 km/h (2 Bft) S 180 11,0 C 24,5 C 12,4 km/h (3 Bft)
11.08.2013 12:55 22,4 C 51 % 1023,9 hPa 0,0 l/m 6,0 km/h (2 Bft) S 180 11,8 C 24,3 C 5,8 km/h (2 Bft)
11.08.2013 13:00 22,8 C 49 % 1023,6 hPa 0,0 l/m 5,8 km/h (2 Bft) S 180 11,5 C 24,0 C 9,3 km/h (2 Bft)
11.08.2013 13:05 23,3 C 50 % 1023,6 hPa 0,0 l/m 5,3 km/h (1 Bft) W 270 12,3 C 25,0 C 7,4 km/h (2 Bft)
11.08.2013 13:10 23,0 C 49 % 1023,6 hPa 0,0 l/m 5,5 km/h (1 Bft) W-SW 247 11,7 C 24,6 C 8,5 km/h (2 Bft)
11.08.2013 13:15 22,9 C 49 % 1023,6 hPa 0,0 l/m 5,0 km/h (1 Bft) W-SW 247 11,6 C 24,6 C 4,2 km/h (1 Bft)
11.08.2013 13:20 21,8 C 52 % 1023,8 hPa 0,0 l/m 4,5 km/h (1 Bft) S-SW 202 11,5 C 23,9 C 3,2 km/h (1 Bft)
11.08.2013 13:25 22,3 C 53 % 1023,8 hPa 0,0 l/m 3,5 km/h (1 Bft) O-SO 112 12,2 C 23,5 C 5,0 km/h (1 Bft)
11.08.2013 13:30 23,5 C 49 % 1023,8 hPa 0,0 l/m 3,1 km/h (1 Bft) W-SW 247 12,2 C 24,7 C 2,1 km/h (1 Bft)
11.08.2013 13:35 23,4 C 50 % 1023,8 hPa 0,0 l/m 3,4 km/h (1 Bft) S-SW 202 12,4 C 25,5 C 5,8 km/h (2 Bft)
11.08.2013 13:40 22,7 C 52 % 1023,7 hPa 0,0 l/m 4,3 km/h (1 Bft) S-SO 157 12,3 C 25,1 C 6,8 km/h (2 Bft)
11.08.2013 13:45 21,4 C 53 % 1023,7 hPa 0,0 l/m 6,1 km/h (2 Bft) W 270 11,4 C 23,6 C 3,9 km/h (1 Bft)
11.08.2013 13:50 21,2 C 55 % 1023,7 hPa 0,0 l/m 6,1 km/h (2 Bft) W-SW 247 11,8 C 22,9 C 5,3 km/h (1 Bft)
11.08.2013 13:55 21,1 C 56 % 1023,7 hPa 0,0 l/m 4,3 km/h (1 Bft) W 270 12,0 C 22,4 C 6,3 km/h (2 Bft)
11.08.2013 14:00 21,1 C 56 % 1023,0 hPa 0,0 l/m 4,2 km/h (1 Bft) S 180 12,0 C 22,3 C 5,5 km/h (1 Bft)
11.08.2013 14:05 20,7 C 56 % 1023,0 hPa 0,0 l/m 4,5 km/h (1 Bft) W-NW 292 11,6 C 21,9 C 3,2 km/h (1 Bft)
11.08.2013 14:10 20,7 C 57 % 1023,0 hPa 0,0 l/m 3,9 km/h (1 Bft) N-NO 22 11,9 C 21,8 C 5,3 km/h (1 Bft)
11.08.2013 14:15 20,5 C 57 % 1023,0 hPa 0,0 l/m 2,7 km/h (1 Bft) SW 225 11,7 C 21,7 C 3,4 km/h (1 Bft)
11.08.2013 14:20 21,2 C 57 % 1022,9 hPa 0,0 l/m 2,9 km/h (1 Bft) W-SW 247 12,3 C 21,9 C 5,0 km/h (1 Bft)
11.08.2013 14:25 21,5 C 55 % 1022,9 hPa 0,0 l/m 2,4 km/h (1 Bft) SO 135 12,1 C 22,4 C 0,0 km/h (0 Bft)
11.08.2013 14:30 21,3 C 55 % 1022,9 hPa 0,0 l/m 2,1 km/h (1 Bft) SW 225 11,9 C 22,8 C 3,5 km/h (1 Bft)
11.08.2013 14:35 21,3 C 56 % 1022,9 hPa 0,0 l/m 2,4 km/h (1 Bft) W-SW 247 12,2 C 22,7 C 4,2 km/h (1 Bft)
11.08.2013 14:40 21,3 C 56 % 1023,4 hPa 0,0 l/m 3,4 km/h (1 Bft) W-NW 292 12,2 C 22,7 C 6,3 km/h (2 Bft)
11.08.2013 14:45 21,2 C 55 % 1023,4 hPa 0,0 l/m 2,6 km/h (1 Bft) O-NO 67 11,8 C 23,2 C 0,0 km/h (0 Bft)
11.08.2013 14:50 21,3 C 55 % 1023,4 hPa 0,0 l/m 1,3 km/h (1 Bft) O-NO 67 11,9 C 23,5 C 0,0 km/h (0 Bft)
11.08.2013 14:55 20,9 C 57 % 1023,4 hPa 0,0 l/m 0,6 km/h (0 Bft) NW 315 12,1 C 23,2 C 0,0 km/h (0 Bft)
11.08.2013 15:00 20,4 C 57 % 1022,8 hPa 0,0 l/m 1,1 km/h (1 Bft) W-SW 247 11,6 C 22,7 C 0,0 km/h (0 Bft)
11.08.2013 15:05 19,8 C 59 % 1022,8 hPa 0,0 l/m 1,3 km/h (1 Bft) NO 45 11,6 C 22,1 C 3,5 km/h (1 Bft)
11.08.2013 15:10 20,0 C 62 % 1022,8 hPa 0,0 l/m 1,1 km/h (1 Bft) O 90 12,5 C 21,9 C 0,0 km/h (0 Bft)
11.08.2013 15:15 20,6 C 61 % 1022,8 hPa 0,0 l/m 0,5 km/h (0 Bft) NO 45 12,8 C 22,6 C 0,0 km/h (0 Bft)
11.08.2013 15:20 20,7 C 59 % 1022,9 hPa 0,0 l/m 0,2 km/h (0 Bft) O-SO 112 12,4 C 22,9 C 0,0 km/h (0 Bft)
11.08.2013 15:25 20,9 C 58 % 1022,9 hPa 0,0 l/m 0,6 km/h (0 Bft) W 270 12,3 C 23,1 C 2,7 km/h (1 Bft)
11.08.2013 15:30 21,6 C 56 % 1022,9 hPa 0,0 l/m 0,8 km/h (0 Bft) S 180 12,4 C 23,5 C 0,0 km/h (0 Bft)
11.08.2013 15:35 21,5 C 56 % 1022,9 hPa 0,0 l/m 0,8 km/h (0 Bft) SO 135 12,3 C 23,9 C 0,0 km/h (0 Bft)
11.08.2013 15:40 21,3 C 57 % 1023,2 hPa 0,0 l/m 0,6 km/h (0 Bft) S-SW 202 12,4 C 23,7 C 2,6 km/h (1 Bft)
11.08.2013 15:45 20,5 C 58 % 1023,2 hPa 0,0 l/m 1,9 km/h (1 Bft) W-SW 247 11,9 C 22,9 C 3,1 km/h (1 Bft)
11.08.2013 15:50 20,5 C 58 % 1023,2 hPa 0,0 l/m 3,1 km/h (1 Bft) W-SW 247 11,9 C 22,6 C 6,1 km/h (2 Bft)
11.08.2013 15:55 21,3 C 57 % 1023,2 hPa 0,0 l/m 3,4 km/h (1 Bft) W-SW 247 12,4 C 22,5 C 5,8 km/h (2 Bft)
11.08.2013 16:00 21,4 C 55 % 1022,8 hPa 0,0 l/m 3,9 km/h (1 Bft) N-NW 337 12,0 C 22,7 C 2,9 km/h (1 Bft)
11.08.2013 16:05 21,3 C 57 % 1022,8 hPa 0,0 l/m 2,7 km/h (1 Bft) W-SW 247 12,4 C 22,8 C 2,1 km/h (1 Bft)
11.08.2013 16:10 21,0 C 57 % 1022,8 hPa 0,0 l/m 1,4 km/h (1 Bft) N-NO 22 12,1 C 22,9 C 0,0 km/h (0 Bft)
11.08.2013 16:15 20,9 C 58 % 1022,8 hPa 0,0 l/m 1,3 km/h (1 Bft) N 360 12,3 C 23,1 C 2,7 km/h (1 Bft)
11.08.2013 16:20 21,7 C 58 % 1022,8 hPa 0,0 l/m 1,3 km/h (1 Bft) W 270 13,1 C 23,7 C 3,5 km/h (1 Bft)
11.08.2013 16:25 22,1 C 54 % 1022,8 hPa 0,0 l/m 1,4 km/h (1 Bft) N 360 12,3 C 25,3 C 4,0 km/h (1 Bft)
11.08.2013 16:30 21,6 C 55 % 1022,8 hPa 0,0 l/m 1,9 km/h (1 Bft) N-NW 337 12,2 C 25,9 C 2,6 km/h (1 Bft)
11.08.2013 16:35 21,3 C 56 % 1022,8 hPa 0,0 l/m 1,8 km/h (1 Bft) O-SO 112 12,2 C 25,1 C 2,1 km/h (1 Bft)
11.08.2013 16:40 21,4 C 54 % 1022,7 hPa 0,0 l/m 1,6 km/h (1 Bft) SW 225 11,7 C 25,7 C 1,9 km/h (1 Bft)
11.08.2013 16:45 21,4 C 56 % 1022,7 hPa 0,0 l/m 1,8 km/h (1 Bft) O-NO 67 12,3 C 25,2 C 0,0 km/h (0 Bft)
11.08.2013 16:50 21,7 C 55 % 1022,7 hPa 0,0 l/m 1,9 km/h (1 Bft) S 180 12,3 C 25,6 C 2,3 km/h (1 Bft)
11.08.2013 16:55 21,5 C 56 % 1022,7 hPa 0,0 l/m 1,8 km/h (1 Bft) SO 135 12,3 C 26,7 C 0,0 km/h (0 Bft)
11.08.2013 17:00 21,6 C 56 % 1022,7 hPa 0,0 l/m 1,3 km/h (1 Bft) SO 135 12,4 C 26,7 C 2,7 km/h (1 Bft)
11.08.2013 17:05 21,4 C 56 % 1022,7 hPa 0,0 l/m 1,4 km/h (1 Bft) W-NW 292 12,3 C 26,1 C 2,7 km/h (1 Bft)
11.08.2013 17:10 21,3 C 55 % 1022,7 hPa 0,0 l/m 1,8 km/h (1 Bft) NO 45 11,9 C 25,3 C 1,6 km/h (1 Bft)
11.08.2013 17:15 21,0 C 58 % 1022,7 hPa 0,0 l/m 1,1 km/h (1 Bft) S 180 12,4 C 24,5 C 4,2 km/h (1 Bft)
11.08.2013 17:20 21,0 C 58 % 1022,2 hPa 0,0 l/m 1,3 km/h (1 Bft) S-SW 202 12,4 C 24,2 C 4,7 km/h (1 Bft)
11.08.2013 17:25 21,2 C 58 % 1022,2 hPa 0,0 l/m 3,1 km/h (1 Bft) S 180 12,6 C 23,7 C 3,4 km/h (1 Bft)
11.08.2013 17:30 21,6 C 58 % 1022,2 hPa 0,0 l/m 2,7 km/h (1 Bft) SW 225 13,0 C 23,9 C 3,1 km/h (1 Bft)
11.08.2013 17:35 21,4 C 59 % 1022,2 hPa 0,0 l/m 1,8 km/h (1 Bft) S 180 13,0 C 24,1 C 3,4 km/h (1 Bft)
11.08.2013 17:40 21,5 C 58 % 1022,2 hPa 0,0 l/m 2,7 km/h (1 Bft) SO 135 12,9 C 25,1 C 6,9 km/h (2 Bft)
11.08.2013 17:45 21,0 C 57 % 1022,2 hPa 0,0 l/m 3,1 km/h (1 Bft) W 270 12,1 C 26,5 C 0,0 km/h (0 Bft)
11.08.2013 17:50 20,9 C 58 % 1022,2 hPa 0,0 l/m 2,1 km/h (1 Bft) W-SW 247 12,3 C 27,1 C 0,0 km/h (0 Bft)
11.08.2013 17:55 20,9 C 60 % 1022,2 hPa 0,0 l/m 2,3 km/h (1 Bft) W-NW 292 12,8 C 27,8 C 0,0 km/h (0 Bft)
11.08.2013 18:00 20,7 C 58 % 1022,3 hPa 0,0 l/m 2,7 km/h (1 Bft) S 180 12,1 C 28,0 C 4,2 km/h (1 Bft)
11.08.2013 18:05 20,5 C 60 % 1022,3 hPa 0,0 l/m 2,7 km/h (1 Bft) S 180 12,5 C 25,6 C 4,0 km/h (1 Bft)
11.08.2013 18:10 20,1 C 62 % 1022,3 hPa 0,0 l/m 3,4 km/h (1 Bft) S 180 12,6 C 24,4 C 5,5 km/h (1 Bft)
11.08.2013 18:15 20,2 C 61 % 1022,3 hPa 0,0 l/m 2,9 km/h (1 Bft) S 180 12,4 C 25,0 C 0,0 km/h (0 Bft)
11.08.2013 18:20 20,1 C 60 % 1021,8 hPa 0,0 l/m 1,8 km/h (1 Bft) S-SW 202 12,1 C 25,2 C 0,0 km/h (0 Bft)
11.08.2013 18:25 20,0 C 60 % 1021,8 hPa 0,0 l/m 0,5 km/h (0 Bft) W-SW 247 12,0 C 26,3 C 1,9 km/h (1 Bft)
11.08.2013 18:30 19,7 C 62 % 1021,8 hPa 0,0 l/m 0,5 km/h (0 Bft) S-SW 202 12,2 C 26,9 C 0,0 km/h (0 Bft)
11.08.2013 18:35 19,7 C 62 % 1021,8 hPa 0,0 l/m 1,3 km/h (1 Bft) S 180 12,2 C 26,5 C 3,1 km/h (1 Bft)
11.08.2013 18:40 19,5 C 62 % 1021,4 hPa 0,0 l/m 1,9 km/h (1 Bft) O-SO 112 12,0 C 26,2 C 2,1 km/h (1 Bft)
11.08.2013 18:45 19,5 C 62 % 1021,4 hPa 0,0 l/m 2,4 km/h (1 Bft) S 180 12,0 C 25,4 C 0,0 km/h (0 Bft)
11.08.2013 18:50 19,2 C 62 % 1021,4 hPa 0,0 l/m 1,6 km/h (1 Bft) S-SW 202 11,7 C 25,2 C 0,0 km/h (0 Bft)
11.08.2013 18:55 18,8 C 63 % 1021,4 hPa 0,0 l/m 0,5 km/h (0 Bft) O-SO 112 11,6 C 23,4 C 0,0 km/h (0 Bft)
11.08.2013 19:00 18,5 C 64 % 1021,4 hPa 0,0 l/m 0,5 km/h (0 Bft) NO 45 11,6 C 22,4 C 2,1 km/h (1 Bft)
11.08.2013 19:05 18,2 C 66 % 1021,4 hPa 0,0 l/m 1,0 km/h (0 Bft) O-NO 67 11,7 C 21,3 C 2,1 km/h (1 Bft)
11.08.2013 19:10 18,2 C 67 % 1021,4 hPa 0,0 l/m 1,8 km/h (1 Bft) NO 45 12,0 C 20,7 C 2,9 km/h (1 Bft)
11.08.2013 19:15 18,0 C 69 % 1021,4 hPa 0,0 l/m 1,9 km/h (1 Bft) O 90 12,2 C 20,0 C 3,4 km/h (1 Bft)
11.08.2013 19:20 18,0 C 70 % 1021,2 hPa 0,0 l/m 2,3 km/h (1 Bft) NO 45 12,4 C 19,7 C 3,1 km/h (1 Bft)
11.08.2013 19:25 18,2 C 71 % 1021,2 hPa 0,0 l/m 2,7 km/h (1 Bft) O 90 12,9 C 19,3 C 2,9 km/h (1 Bft)
11.08.2013 19:30 18,2 C 71 % 1021,2 hPa 0,0 l/m 2,7 km/h (1 Bft) O-NO 67 12,9 C 19,3 C 2,6 km/h (1 Bft)
11.08.2013 19:35 18,1 C 73 % 1021,2 hPa 0,0 l/m 2,6 km/h (1 Bft) O 90 13,2 C 19,2 C 3,1 km/h (1 Bft)
11.08.2013 19:40 18,0 C 73 % 1021,4 hPa 0,0 l/m 2,7 km/h (1 Bft) O 90 13,1 C 19,1 C 2,4 km/h (1 Bft)
11.08.2013 19:45 17,8 C 74 % 1021,4 hPa 0,0 l/m 1,4 km/h (1 Bft) NO 45 13,1 C 19,1 C 0,0 km/h (0 Bft)
11.08.2013 19:50 17,9 C 74 % 1021,4 hPa 0,0 l/m 0,3 km/h (0 Bft) O 90 13,2 C 19,1 C 0,0 km/h (0 Bft)
11.08.2013 19:55 18,0 C 73 % 1021,4 hPa 0,0 l/m 1,1 km/h (1 Bft) O-NO 67 13,1 C 19,5 C 0,0 km/h (0 Bft)
11.08.2013 20:00 18,1 C 73 % 1021,4 hPa 0,0 l/m 1,3 km/h (1 Bft) NO 45 13,2 C 20,2 C 0,0 km/h (0 Bft)
11.08.2013 20:05 17,8 C 73 % 1021,4 hPa 0,0 l/m 0,3 km/h (0 Bft) O-NO 67 12,9 C 20,6 C 0,0 km/h (0 Bft)
11.08.2013 20:10 17,8 C 72 % 1021,4 hPa 0,0 l/m 0,2 km/h (0 Bft) NO 45 12,7 C 20,3 C 0,0 km/h (0 Bft)
11.08.2013 20:15 17,5 C 74 % 1021,4 hPa 0,0 l/m 0,0 km/h (0 Bft) O 90 12,8 C 19,9 C 0,0 km/h (0 Bft)
11.08.2013 20:20 17,5 C 73 % 1021,6 hPa 0,0 l/m 0,0 km/h (0 Bft) O 90 12,6 C 19,5 C 0,0 km/h (0 Bft)
11.08.2013 20:25 17,4 C 74 % 1021,6 hPa 0,0 l/m 0,3 km/h (0 Bft) SO 135 12,7 C 19,1 C 2,7 km/h (1 Bft)
11.08.2013 20:30 17,3 C 74 % 1021,6 hPa 0,0 l/m 0,8 km/h (0 Bft) O-NO 67 12,6 C 18,8 C 3,1 km/h (1 Bft)
11.08.2013 20:35 17,2 C 72 % 1021,6 hPa 0,0 l/m 1,0 km/h (0 Bft) O 90 12,1 C 18,1 C 0,0 km/h (0 Bft)
11.08.2013 20:40 17,0 C 71 % 1021,8 hPa 0,0 l/m 0,6 km/h (0 Bft) O-SO 112 11,7 C 17,6 C 0,0 km/h (0 Bft)
11.08.2013 20:45 16,7 C 71 % 1021,8 hPa 0,0 l/m 0,2 km/h (0 Bft) O-NO 67 11,4 C 17,2 C 0,0 km/h (0 Bft)
11.08.2013 20:50 16,6 C 71 % 1021,8 hPa 0,0 l/m 0,0 km/h (0 Bft) S-SO 157 11,3 C 17,1 C 0,0 km/h (0 Bft)
11.08.2013 20:55 16,4 C 72 % 1021,8 hPa 0,0 l/m 0,0 km/h (0 Bft) SO 135 11,3 C 16,8 C 0,0 km/h (0 Bft)
11.08.2013 21:00 16,5 C 73 % 1022,4 hPa 0,0 l/m 0,3 km/h (0 Bft) O-SO 112 11,6 C 16,6 C 2,7 km/h (1 Bft)
11.08.2013 21:05 16,6 C 72 % 1022,4 hPa 0,0 l/m 0,5 km/h (0 Bft) O 90 11,5 C 16,4 C 0,0 km/h (0 Bft)
11.08.2013 21:10 16,8 C 70 % 1022,4 hPa 0,0 l/m 1,3 km/h (1 Bft) O 90 11,3 C 16,4 C 3,7 km/h (1 Bft)
11.08.2013 21:15 16,8 C 68 % 1022,4 hPa 0,0 l/m 1,8 km/h (1 Bft) S-SO 157 10,9 C 16,5 C 2,4 km/h (1 Bft)
11.08.2013 21:20 16,9 C 66 % 1021,9 hPa 0,0 l/m 1,9 km/h (1 Bft) O-NO 67 10,5 C 16,5 C 2,6 km/h (1 Bft)
11.08.2013 21:25 16,7 C 68 % 1021,9 hPa 0,0 l/m 2,9 km/h (1 Bft) O 90 10,8 C 16,3 C 4,0 km/h (1 Bft)
11.08.2013 21:30 16,3 C 70 % 1021,9 hPa 0,0 l/m 3,7 km/h (1 Bft) O 90 10,8 C 16,2 C 4,8 km/h (1 Bft)
11.08.2013 21:35 16,3 C 70 % 1021,9 hPa 0,0 l/m 3,4 km/h (1 Bft) N-NW 337 10,8 C 16,0 C 4,0 km/h (1 Bft)
11.08.2013 21:40 16,2 C 71 % 1022,1 hPa 0,0 l/m 3,2 km/h (1 Bft) O-NO 67 10,9 C 16,0 C 3,5 km/h (1 Bft)
11.08.2013 21:45 16,2 C 72 % 1022,1 hPa 0,0 l/m 3,4 km/h (1 Bft) O-NO 67 11,1 C 15,9 C 3,4 km/h (1 Bft)
11.08.2013 21:50 15,9 C 74 % 1022,1 hPa 0,0 l/m 3,2 km/h (1 Bft) O 90 11,3 C 15,8 C 4,0 km/h (1 Bft)
11.08.2013 21:55 15,6 C 75 % 1022,1 hPa 0,0 l/m 2,6 km/h (1 Bft) O 90 11,2 C 15,6 C 2,4 km/h (1 Bft)
11.08.2013 22:00 15,3 C 76 % 1022,1 hPa 0,0 l/m 2,1 km/h (1 Bft) O 90 11,1 C 15,4 C 2,4 km/h (1 Bft)
11.08.2013 22:05 15,4 C 77 % 1022,1 hPa 0,0 l/m 1,8 km/h (1 Bft) O-NO 67 11,4 C 15,3 C 0,0 km/h (0 Bft)
11.08.2013 22:10 15,3 C 76 % 1022,1 hPa 0,0 l/m 1,3 km/h (1 Bft) O 90 11,1 C 15,2 C 1,8 km/h (1 Bft)
11.08.2013 22:15 15,6 C 76 % 1022,1 hPa 0,0 l/m 1,1 km/h (1 Bft) O-SO 112 11,4 C 15,2 C 4,8 km/h (1 Bft)
11.08.2013 22:20 15,8 C 75 % 1022,1 hPa 0,0 l/m 2,1 km/h (1 Bft) O-SO 112 11,4 C 15,3 C 2,4 km/h (1 Bft)
11.08.2013 22:25 15,7 C 75 % 1022,1 hPa 0,0 l/m 2,9 km/h (1 Bft) NO 45 11,3 C 15,4 C 4,7 km/h (1 Bft)
11.08.2013 22:30 15,6 C 75 % 1022,1 hPa 0,0 l/m 3,4 km/h (1 Bft) O-NO 67 11,2 C 15,3 C 4,3 km/h (1 Bft)
11.08.2013 22:35 15,5 C 74 % 1022,1 hPa 0,0 l/m 4,0 km/h (1 Bft) S 180 10,9 C 15,2 C 5,0 km/h (1 Bft)
11.08.2013 22:40 15,5 C 74 % 1021,9 hPa 0,0 l/m 3,9 km/h (1 Bft) O 90 10,9 C 15,1 C 3,7 km/h (1 Bft)
11.08.2013 22:45 15,2 C 75 % 1021,9 hPa 0,0 l/m 3,9 km/h (1 Bft) O 90 10,8 C 14,9 C 4,7 km/h (1 Bft)
11.08.2013 22:50 15,0 C 75 % 1021,9 hPa 0,0 l/m 3,5 km/h (1 Bft) O-SO 112 10,6 C 14,8 C 0,0 km/h (0 Bft)
11.08.2013 22:55 14,0 C 78 % 1021,9 hPa 0,0 l/m 1,4 km/h (1 Bft) N-NO 22 10,2 C 14,2 C 0,0 km/h (0 Bft)
11.08.2013 23:00 14,0 C 80 % 1022,1 hPa 0,0 l/m 0,3 km/h (0 Bft) N-NO 22 10,6 C 13,8 C 1,8 km/h (1 Bft)
11.08.2013 23:05 13,8 C 80 % 1022,1 hPa 0,0 l/m 0,8 km/h (0 Bft) NO 45 10,4 C 13,5 C 0,0 km/h (0 Bft)
11.08.2013 23:10 13,6 C 80 % 1022,1 hPa 0,0 l/m 0,8 km/h (0 Bft) NO 45 10,2 C 13,3 C 0,0 km/h (0 Bft)
11.08.2013 23:15 13,3 C 81 % 1022,1 hPa 0,0 l/m 0,2 km/h (0 Bft) O-NO 67 10,1 C 12,9 C 0,0 km/h (0 Bft)
11.08.2013 23:20 13,2 C 81 % 1022,1 hPa 0,0 l/m 0,0 km/h (0 Bft) O-NO 67 10,0 C 12,6 C 1,6 km/h (1 Bft)
11.08.2013 23:25 13,3 C 82 % 1022,1 hPa 0,0 l/m 1,3 km/h (1 Bft) O-NO 67 10,3 C 12,5 C 3,5 km/h (1 Bft)
11.08.2013 23:30 13,3 C 82 % 1022,1 hPa 0,0 l/m 1,9 km/h (1 Bft) O-SO 112 10,3 C 12,6 C 0,0 km/h (0 Bft)
11.08.2013 23:35 12,8 C 83 % 1022,1 hPa 0,0 l/m 1,1 km/h (1 Bft) O 90 10,0 C 12,4 C 0,0 km/h (0 Bft)
11.08.2013 23:40 12,9 C 83 % 1022,1 hPa 0,0 l/m 0,0 km/h (0 Bft) NO 45 10,1 C 12,3 C 0,0 km/h (0 Bft)
11.08.2013 23:45 12,8 C 83 % 1022,1 hPa 0,0 l/m 0,6 km/h (0 Bft) O 90 10,0 C 12,2 C 2,4 km/h (1 Bft)
11.08.2013 23:50 12,9 C 83 % 1022,1 hPa 0,0 l/m 1,3 km/h (1 Bft) O 90 10,1 C 12,2 C 0,0 km/h (0 Bft)
11.08.2013 23:55 12,3 C 83 % 1022,1 hPa 0,0 l/m 0,8 km/h (0 Bft) O 90 9,5 C 12,0 C 0,0 km/h (0 Bft)
_ Min-Zeit 00:50 12:05 19:35 - 23:40 - - 00:40 00:50 23:55
Minimum _ 11,7 C 43 % 1021,2 hPa - 0,0 km/h (0 Bft) - - 8,5 C 11,5 C 0,0 km/h (0 Bft)
_ Max-Zeit 12:05 07:25 12:15 05:20 11:15 - - 09:25 18:00 12:25
Maximum _ 25,6 C 95 % 1024,1 hPa 0,7 l/m 6,8 km/h
S (2 Bft)
- - 18,9 C 28,0 C 15,4 km/h
S (3 Bft)
Durchschnitt _ 17,5 C 71 % 1022,8 hPa #0,7 l/m 2,0 km/h (1 Bft) S - 11,9 C 18,5 C 2,4 km/h (1 Bft)